Regional Weather Roundup
Issued by NWS Green Bay, WI

Home | Current Version | Previous Version | Graphics & Text | Print | Product List | Glossary Off
Versions: 1 2 3 4 5 6 7 8 9 10 11 12 13 14 15 16 17 18 19 20 21 22 23 24 25 26 27 28 29 30 31 32 33 34 35 36 37 38 39 40 41 42 43 44 45 46 47 48 49 50

000
ASUS43 KGRB 280210
RWRGRB

NORTH-CENTRAL AND NORTHEAST WISCONSIN REGIONAL WEATHER ROUNDUP
NATIONAL WEATHER SERVICE GREEN BAY WI
800 PM CST TUE JAN 27 2015

WIZ005-009-010>012-018-019-280300-
NORTH CENTRAL WISCONSIN

CITY           SKY/WX    TMP DP  RH WIND       PRES   REMARKS
IRONWOOD       CLOUDY    25  23  93 SW7       30.12S
MANITOWISH WTR CLOUDY    22  19  86 S3        30.13S
ARBOR VITAE    CLOUDY    24  20  85 S5        30.14S
EAGLE RIVER    CLOUDY    22  17  81 CALM      30.13F
LAND O LAKES   CLOUDY    23  19  86 S5        30.13F
RHINELANDER    CLOUDY    22  17  81 CALM      30.15F
PHILLIPS       CLOUDY    23  20  86 S3        30.15R
ANTIGO         CLOUDY    22  18  87 SE6       30.16F
TOMAHAWK       CLOUDY    23  19  84 CALM      30.16S
MERRILL        CLOUDY    24  19  82 CALM      30.17F
$$

WIZ013-073-280300-
NORTHEAST WISCONSIN

CITY           SKY/WX    TMP DP  RH WIND       PRES   REMARKS
IRON MOUNTAIN  CLOUDY    22  17  81 S3        30.17F
MARINETTE      CLOUDY    19  16  86 CALM      30.24S
OCONTO         PTCLDY    12  11  95 CALM      30.25R
$$

WIZ017-030-035>037-045-280300-
CENTRAL WISCONSIN

CITY           SKY/WX    TMP DP  RH WIND       PRES   REMARKS
MEDFORD        CLOUDY    23  19  86 S3        30.16S
WAUSAU         CLOUDY    24  19  81 SE5       30.17S
MOSINEE        CLOUDY    23  21  93 SE5       30.19S
MARSHFIELD     CLOUDY    25  21  85 S6        30.18R
WISC RAPIDS    CLOUDY    25  21  85 SE3       30.21R
STEVENS POINT  CLOUDY    22  19  87 CALM      30.20S
WAUPACA        CLOUDY    27  19  74 CALM      30.22S
SHAWANO        CLOUDY    27  17  68 CALM      30.23S
CLINTONVILLE   CLOUDY    27  18  69 CALM      30.23R
$$

WIZ038-039-048-051-280300-
FOX VALLEY

CITY           SKY/WX    TMP DP  RH WIND       PRES   REMARKS
NWS GREEN BAY  MOCLDY    16  13  88 CALM      30.23F
APPLETON       CLOUDY    25  16  68 VRB5      30.21F
OSHKOSH        CLOUDY    25  17  72 CALM      30.22F
FOND DU LAC    CLOUDY    25  18  74 CALM      30.21F
$$

WIZ022-050-052-280300-
EAST CENTRAL WISCONSIN

CITY           SKY/WX    TMP DP  RH WIND       PRES   REMARKS
STURGEON BAY   PTCLDY    14  10  85 CALM      30.24F
MANITOWOC      CLOUDY    25  18  74 CALM      30.25F
SHEBOYGAN      CLOUDY    26  17  68 NE5       30.24F
$$

LMZ563-521-522-541>543-280300-
LAKESHORE

STATION/POSITION TIME  TEMP    WIND        PRES    VSBY  WAVE
                       AIR SEA DIR/SP/G                  HT/PER
                 (UTC) (F)     (DEG/KT/KT) (MB)    (MI)  (FT/S)
SHEBOYGAN LKSHOR 0200   27      30/  6/  7 1025.1F
KEWAUNEE LKSHORE 0200   25      CALM  /  1 1023.2S
NORTHPORT PIER   0200   17      CALM  /  1 1024.0F
SISTER BAY LKSHO 0100   17        CALM       N/A
STURGEON BAY CG  0100   17     300/  4     1024.3      6   0
CHAMBERS ISLAND  0200   19     120/  3/  4 1024.0S
MENOMINEE LKSHOR 0200   20     110/  3     1024.4S
$$



USA.gov is the U.S. government's official web portal to all federal, state and local government web resources and services.